Regional Weather Roundup
Issued by NWS

Home | Current Version | Previous Version | Graphics & Text | Print | Product List | Glossary On
Versions: 1 2 3 4 5 6 7 8 9 10 11 12 13 14 15 16 17 18 19 20 21 22 23 24 25 26 27 28 29 30 31 32 33 34 35 36 37 38 39 40 41 42 43 44 45 46 47 48 49 50
861
ASUS43 KMPX 182110
RWRMN
WEATHER ROUNDUP FOR MINNESOTA
NATIONAL WEATHER SERVICE TWIN CITIES/CHANHASSEN MN
400 PM CDT WED OCT 18 2017


NOTE: "FAIR" INDICATES FEW OR NO CLOUDS BELOW 12,000 FEET WITH NO
SIGNIFICANT WEATHER AND/OR OBSTRUCTIONS TO VISIBILITY. N/A MEANS
CURRENT SKY AND/OR WEATHER CONDITIONS ARE NOT AVAILABLE.

MNZ060>063-068>070-182200-
   Twin Cities Metro

CITY           SKY/WX    TMP DP  RH WIND       PRES   REMARKS
TWIN CITIES    MOSUNNY   72  40  31 W14       29.83F
ST PAUL        SUNNY     70  43  37 SW12      29.84S
CRYSTAL        SUNNY     73  33  23 W13       29.82S
BLAINE         PTSUNNY   73  30  20 W17       29.81F
LAKEVILLE      SUNNY     70  39  32 W8        29.85S
EDEN PRAIRIE   SUNNY     73  28  18 NW15G28   29.84S
SOUTH ST PAUL  SUNNY     71  41  33 W10       29.83S
LAKE ELMO      FAIR      70  45  40 W12       29.84S
$$
MNZ001>005-007-008-013>017-022>024-027-028-182200-
   Northwest Minnesota

CITY           SKY/WX    TMP DP  RH WIND       PRES   REMARKS
BEMIDJI        SUNNY     58  15  18 W30G36    29.78R
HALLOCK        SUNNY     61  -2   8 W26G36    29.72R
ROSEAU         SUNNY     61   7  11 W25G38    29.67R
WARROAD        SUNNY     59  18  20 W23G40    29.66R
THIEF RVR FALL SUNNY     58  17  20 W21G33    29.79R
CROOKSTON      SUNNY     61  14  16 W30G40    29.82R
FOSSTON        SUNNY     59  12  15 W22G32    29.82R
DETROIT LAKES  SUNNY     61  14  16 W21G29    29.86R
MOORHEAD       CLOUDY    61  12  15 NW21G30   29.88R
PARK RAPIDS    SUNNY     61  17  18 W21G33    29.82R
MAHNOMEN       FAIR      58  14  17 W28G37    29.84R
$$
MNZ006-009>011-018-025>026-182200-
   North Central Minnesota

CITY           SKY/WX    TMP DP  RH WIND       PRES   REMARKS
BAUDETTE       SUNNY     58  15  18 W26G41    29.66S
FLAG ISLAND    SUNNY     57  14  18 W25G40    29.58R
INTL FALLS     SUNNY     60  18  19 W20G32    29.64S
WASKISH        SUNNY     55  32  41 W16G28    29.72S
BIG FORK       SUNNY     61  14  16 W18G26    29.73R
LONGVILLE      SUNNY     63  12  14 W13G23    29.78R
GRAND RAPIDS   SUNNY     61  16  17 NW20G26   29.77R
CRANE LAKE     SUNNY     61  18  18 W10G22    29.66S
ORR            SUNNY     61  16  17 W16G24    29.67R
COOK           SUNNY     59  14  17 W22G28    29.71R
WALKER         FAIR      59  15  17 W17G30    29.78S
$$
MNZ012-019>021-037-182200-
   Northeast Minnesota

CITY           SKY/WX    TMP DP  RH WIND       PRES   REMARKS
DULUTH         MOSUNNY   64  18  17 W29G37    29.71R
ELY            SUNNY     63  10  13 W25G33    29.66R
HIBBING        SUNNY     61  15  16 W16G25    29.72R
EVELETH        SUNNY     63   1   8 W16G26    29.72R
DULUTH HARBOR  SUNNY     66  27  22 W20G28    29.70R
TWO HARBORS    SUNNY     70  36  28 W21G31    29.66R
SILVER BAY     SUNNY     70  28  21 W8G21     29.63R
GRAND MARAIS     N/A     58  50  75 W13       29.58R
G MARAIS ARPRT CLOUDY    64  30  27 SW12G22   29.61R
$$
MNZ029>031-032-039>041-046>048-054>057-064-182200-
   West Central Minnesota

CITY           SKY/WX    TMP DP  RH WIND       PRES   REMARKS
FERGUS FALLS   SUNNY     59  25  27 W21G26    29.89S
WHEATON        MOSUNNY   61  21  21 W10G18    29.95S
MORRIS         CLOUDY    59  27  29 W15       29.93S
ALEXANDRIA     SUNNY     60  24  25 W14       29.91R
ELBOW LAKE     FAIR      58  24  26 NW15G23   29.92S
WADENA         SUNNY     59  25  27 W13G22    29.85R
GLENWOOD       CLOUDY    59  25  27 W14       29.92R
APPLETON       CLOUDY    63  18  17 NW15G22   29.94R
BENSON         MOSUNNY   63  21  20 N15G24    29.95R
ORTONVILLE     PTSUNNY   61  27  27 NW10      29.96R
MADISON        CLOUDY    64  25  22 NW15      29.95R
WILLMAR        FAIR      64  28  25 NW20G25   29.94R
$$
MNZ033>034-036-042>043-049>051-058-059-182200-
   Central Minnesota

CITY           SKY/WX    TMP DP  RH WIND       PRES   REMARKS
ST CLOUD       MOSUNNY   66  31  27 NW18      29.85R
SAUK CENTRE    FAIR      60  23  23 W20G28    29.90R
PAYNESVILLE    CLOUDY    63  20  19 NW23      29.91R
AITKIN         SUNNY     63  19  19 W13G20    29.79R
PINE RIVER     SUNNY     59  23  25 W15G25    29.84R
BRAINERD       SUNNY     63  14  15 W22G30    29.83R
STAPLES        SUNNY     61  16  17 W18G25    29.85R
LONG PRAIRIE   FAIR      61  23  23 W17G23    29.89R
LITTLE FALLS   SUNNY     63   3   9 W15G25    29.86R
LITCHFIELD     SUNNY     66  27  22 W16G22    29.90R
BUFFALO        SUNNY     69  22  17 W16G24    29.87R
MAPLE LAKE     SUNNY     68  31  25 NW14G24   29.87R
HUTCHINSON     SUNNY     70  32  24 W10G18    29.90R
$$
MNZ037-044-045-052-053-182200-
   East Central Minnesota

CITY           SKY/WX    TMP DP  RH WIND       PRES   REMARKS
PRINCETON      CLOUDY    70  27  19 W14G21    29.84R
MORA           SUNNY     64  27  24 W20G25    29.82R
CAMBRIDGE      SUNNY     72  43  35 W12G25    29.82R
RUSH CITY      SUNNY     69  26  20 W14G21    29.80R
MOOSE LAKE     SUNNY     66  28  24 W12G23    29.74R
HINCKLEY       FAIR      68  30  24 W12G24    29.79R
CLOQUET        SUNNY     66  14  13 W22G28    29.73R
MCGREGOR       SUNNY     64  21  19 W13G22    29.78R
$$
MNZ071>073-080-081-089-090-097-098-182200-
   Southwest Minnesota

CITY           SKY/WX    TMP DP  RH WIND       PRES   REMARKS
MONTEVIDEO     MOSUNNY   66  32  28 N14G20    29.94R
GRANITE FALLS  CLOUDY    68  32  26 NW13G18   29.95R
CANBY          CLOUDY    67  28  23 NW12      29.96R
MARSHALL       CLOUDY    67  29  24 N16       29.95R
REDWOOD FALLS  SUNNY     70  27  20 NW14      29.92R
OLIVIA         MOSUNNY   68  32  26 W15       29.92R
PIPESTONE      SUNNY     70  28  21 N9        29.96R
WORTHINGTON    SUNNY     71  34  25 N12       29.96R
JACKSON        SUNNY     70  32  24 N10G18    29.94R
TRACY          SUNNY     69  34  28 N13       29.95R
SLAYTON        SUNNY    N/A N/A N/A NW15      29.96R
$$
MNZ065>067-074>077-082>085-091>093-182200-
   South Central Minnesota

CITY           SKY/WX    TMP DP  RH WIND       PRES   REMARKS
MANKATO        SUNNY     72  37  28 NW10      29.89R
NEW ULM        SUNNY     72  34  25 NW14G21   29.90R
ST JAMES       SUNNY     73  34  23 NW7       29.92R
FAIRMONT       SUNNY     73  34  23 N10G20    29.91R
GLENCOE        SUNNY     71  30  21 NW13G21   29.88R
FARIBAULT      SUNNY     72  41  33 SW8       29.87F
OWATONNA       SUNNY     72  45  37 W7        29.88F
WASECA         SUNNY     72  39  30 W6        29.89F
$$
MNZ078>079-086>088-094>096-182200-
   Southeast Minnesota

CITY           SKY/WX    TMP DP  RH WIND       PRES   REMARKS
ROCHESTER      CLOUDY    70  49  47 W18G26    29.90R
RED WING       SUNNY     72  37  28 W9        29.83F
STANTON        SUNNY     71  41  33 W6        29.84F
DODGE CENTER   CLOUDY    70  41  35 W10G16    29.90S
WINONA         MOSUNNY   73  48  40 W9        29.86R
AUSTIN         SUNNY     70  46  43 NW10G21   29.91R
PRESTON        CLOUDY    71  46  40 SW17G23   29.90R
$$
ABBREVIATIONS USED IN REMARKS
   TC - TEMPERATURES IN CELSIUS
  WCI - WIND CHILL INDEX
   HX - HEAT INDEX
  VSB - VISIBILITY
$$




USA.gov is the U.S. government's official web portal to all federal, state and local government web resources and services.